Location: Unspecified
(42.3650°N, 71.1030°W)
Time: 04:52:43
(UTC+00:00)

Explorer 11/Cluster Stage 4 - Pass Details

Date: 25 June 2024
Orbit: 465 x 1216 km, 28.8° (Epoch: 13 July)

Event Time Altitude Azimuth Distance (km) Brightness Sun altitude
Rises 04:20:36 0° 258° (WSW) 4,098 10.2 -24.0°
Reaches altitude 10° 04:24:38 10° 241° (WSW) 3,070 9.4 -24.1°
Enters shadow 04:25:00 11° 239° (WSW) 2,990 9.3 -24.1°
Maximum altitude 04:29:20 18° 203° (SSW) 2,433 - -24.1°
Drops below altitude 10° 04:33:41 10° 164° (SSE) 2,804 - -24.2°
Sets 04:37:09 0° 145° (SE) 3,609 - -24.2°
